STARLINK-38140, 100182

Orbit data source: Space-Track

STARLINK-38140, 100182 is a payload satellite owned by SpaceX/Seattle (US) in SSO that was launched on Sat, 01 Aug 2026 UTC launched from the Air Force Western Test Range (AFWTR). Payload-class satellites include a variety of spacecraft equipped with specific instruments for various scientific and technological missions. These include communications satellites like Starlink; space stations such as the ISS; scientific satellites like the Hubble; Earth observation satellites from companies like Planet Labs, Umbra, and HawkEye 360; GPS; miniature CubeSats for education and research; and military/defense satellites.

Not visible in the next 10 days
Identifier
100182, 2026-175D
Orbit
SSO
Country
Flag of USUS
Related business
Manufacturer
SpaceX/Seattle
Mission
Operational spacecraft
Bus & Motor
STARLINK V2MO, Unknown motor
Mass
575 kg wet, ~530 kg dry
Launch date (UTC)
2026-08-01 (1 month ago)
Launch vehicle
Unknown
Launch site
Air Force Western Test Range (AFWTR)
Object type
Payload
Rocket body
Debris
Shape & HBR
BOX + PAN, 17.7 m
Radar Cross Section
Large (>1 m²)

Expand to show TLE details & history
Last TLE update: 9 hours ago

TLE from 9 hours ago
0 STARLINK-38140
1 A0182U 26175D   26249.53877554  .00165178  00000-0  10863-2 0  9997
2 A0182  97.2813  91.2092 0000945  70.4831 289.6536 15.75205754  6979
Epoch: 2026-09-06T12:55Z
TLE epoch observation values (Epoch: 2026-09-06T12:55:50.206Z)
Latitude
-0.00006°
Longitude
-88.38243°
Altitude
347.001 km
Speed
7.701 km/s
True Right ascension
06h 04m 50s
True Declination
0° 00' 00"
Sunlit
Object was in daylight at epoch
Visualization orbit readout
Latitude
Unknown
Longitude
Unknown
Altitude
Unknown
Speed
Unknown
Apparent Right ascension
Unknown
Apparent Declination
Unknown
Sunlit
N/A
Visualization observer readout
Local Sidereal Time
13:50:17
Azimuth
Unknown
Elevation
Unknown
Doppler factor
Unknown
Orbital elements
Apogee altitude
341.568 km
Perigee altitude
340.298 km
Semi-major axis
6,719.07 km
Eccentricity
0.00009
Inclination
97.2813°
RAAN
91.2092°
Arg. of periapsis
70.4831°
True anomaly
289.6434°
Mean anomaly
289.6536°
Eccentric anomaly
289.6485°
Mean motion
3.94075 °/min
Orbital period
91.35 mins
BSTAR
0.0010863
Loading maneuver chart data...
Computing Atmospheric mass density...
Loading historical data...
Loading historical data...
Loading historical data...
Loading historical data...
Loading historical data...
Loading historical data...
Loading historical data...

Documentation

Showing up to 5 results
|